FIN8PH EFHK-EHAM

Flight info

Callsign FIN8PH
Flight time N/A
Altitude 40000
Route NUNTO Y369 REKDO DCT KOSKA DCT KOPIM N872 DEMIR DCT WANZA N872 OGFON DCT KUBAT T200 BLUFA
Aircraft A359/H-SDE2E3GHIJ3J4J5LM1ORWXY/LB1D1

Departure

Time 2026-05-04 12:58
Airport Helsinki Vantaa Airport (EFHK)

Arrival

Time N/A
Airport Amsterdam Airport Schiphol (EHAM)
Time Latitude Longitude Altitude Speed Heading
2026-05-04 12:02 60.31563 24.95807 173 ft 0 kts 137°
2026-05-04 12:46 60.31564 24.95807 173 ft 1 kts 137°
2026-05-04 12:47 60.31581 24.95774 173 ft 4 kts 137°
2026-05-04 12:47 60.31598 24.95743 173 ft 2 kts 137°
2026-05-04 12:47 60.31609 24.95722 173 ft 4 kts 92°
2026-05-04 12:47 60.31605 24.95691 173 ft 4 kts 49°
2026-05-04 12:48 60.31588 24.95654 173 ft 4 kts 46°
2026-05-04 12:48 60.31570 24.95615 173 ft 4 kts 48°
2026-05-04 12:48 60.31555 24.95581 173 ft 2 kts 47°
2026-05-04 12:48 60.31554 24.95580 173 ft 4 kts 47°
2026-05-04 12:51 60.31555 24.95580 173 ft 1 kts 47°
2026-05-04 12:52 60.31582 24.95641 173 ft 9 kts 47°
2026-05-04 12:52 60.31637 24.95652 173 ft 9 kts 332°
2026-05-04 12:52 60.31689 24.95565 174 ft 10 kts 322°
2026-05-04 12:52 60.31746 24.95572 176 ft 8 kts 28°
2026-05-04 12:53 60.31803 24.95683 176 ft 16 kts 46°
2026-05-04 12:53 60.31892 24.95873 176 ft 18 kts 46°
2026-05-04 12:53 60.31955 24.95953 177 ft 6 kts 349°
2026-05-04 12:53 60.31988 24.95910 178 ft 8 kts 318°
2026-05-04 12:54 60.32041 24.95820 180 ft 12 kts 318°
2026-05-04 12:54 60.32118 24.95681 179 ft 18 kts 318°
2026-05-04 12:54 60.32221 24.95486 180 ft 21 kts 317°
2026-05-04 12:54 60.32335 24.95291 183 ft 21 kts 330°
2026-05-04 12:55 60.32475 24.95186 194 ft 22 kts 342°
2026-05-04 12:55 60.32619 24.95092 199 ft 23 kts 342°
2026-05-04 12:55 60.32778 24.94985 183 ft 25 kts 341°
2026-05-04 12:55 60.32909 24.94873 182 ft 16 kts 326°
2026-05-04 12:56 60.32993 24.94730 198 ft 16 kts 319°
2026-05-04 12:56 60.33069 24.94591 206 ft 14 kts 317°
2026-05-04 12:56 60.33121 24.94466 203 ft 10 kts 289°
2026-05-04 12:56 60.33093 24.94344 203 ft 11 kts 229°
2026-05-04 12:57 60.33036 24.94215 205 ft 14 kts 228°
2026-05-04 12:57 60.32917 24.93950 198 ft 51 kts 227°
2026-05-04 12:57 60.32456 24.92942 180 ft 143 kts 227°
2026-05-04 12:57 60.31659 24.91192 694 ft 180 kts 228°
2026-05-04 12:58 60.30818 24.89192 1785 ft 195 kts 238°
2026-05-04 12:58 60.30563 24.86482 2866 ft 205 kts 273°
2026-05-04 12:58 60.30651 24.83528 3456 ft 218 kts 271°
2026-05-04 12:58 60.30612 24.80361 4004 ft 233 kts 264°
2026-05-04 12:59 60.30344 24.77093 4751 ft 238 kts 252°
2026-05-04 12:59 60.29691 24.73964 5485 ft 247 kts 244°
2026-05-04 12:59 60.28929 24.70854 6426 ft 247 kts 244°
2026-05-04 12:59 60.28222 24.67719 7441 ft 244 kts 247°
2026-05-04 13:00 60.27605 24.64550 8332 ft 248 kts 250°
2026-05-04 13:00 60.27016 24.61264 9331 ft 249 kts 249°
2026-05-04 13:00 60.26402 24.57999 10279 ft 250 kts 248°
2026-05-04 13:00 60.25763 24.54754 11206 ft 250 kts 247°
2026-05-04 13:01 60.25095 24.51520 12175 ft 250 kts 246°
2026-05-04 13:01 60.24381 24.48316 13039 ft 253 kts 243°
2026-05-04 13:01 60.23537 24.45087 13576 ft 269 kts 242°
2026-05-04 13:01 60.22604 24.41665 13918 ft 288 kts 242°
2026-05-04 13:02 60.21611 24.38019 14267 ft 306 kts 242°
2026-05-04 13:02 60.20567 24.34170 14595 ft 323 kts 242°
2026-05-04 13:02 60.19472 24.30124 15059 ft 333 kts 242°
2026-05-04 13:02 60.18352 24.25989 15732 ft 338 kts 242°
2026-05-04 13:03 60.17221 24.21818 16450 ft 342 kts 242°
2026-05-04 13:03 60.16073 24.17587 17185 ft 346 kts 241°
2026-05-04 13:03 60.14930 24.13384 17894 ft 350 kts 241°
2026-05-04 13:03 60.13740 24.09014 18585 ft 354 kts 241°
2026-05-04 13:04 60.12556 24.04674 19269 ft 356 kts 241°
2026-05-04 13:04 60.11377 24.00361 19975 ft 359 kts 241°
2026-05-04 13:04 60.10170 23.95956 20665 ft 363 kts 241°
2026-05-04 13:04 60.08948 23.91503 21344 ft 366 kts 241°
2026-05-04 13:05 60.07718 23.87008 22045 ft 370 kts 241°
2026-05-04 13:05 60.06504 23.82435 22676 ft 373 kts 242°
2026-05-04 13:05 60.05295 23.77796 23346 ft 377 kts 242°
2026-05-04 13:05 60.04082 23.73119 23941 ft 380 kts 242°
2026-05-04 13:06 60.02861 23.68422 24550 ft 382 kts 242°
2026-05-04 13:06 60.01629 23.63705 25136 ft 384 kts 242°
2026-05-04 13:06 60.00398 23.59020 25734 ft 386 kts 242°
2026-05-04 13:06 59.99142 23.54262 26318 ft 388 kts 241°
2026-05-04 13:07 59.97876 23.49485 26886 ft 391 kts 241°
2026-05-04 13:07 59.96600 23.44684 27459 ft 393 kts 241°
2026-05-04 13:07 59.95311 23.39846 28016 ft 396 kts 241°
2026-05-04 13:07 59.94013 23.34982 28578 ft 398 kts 241°
2026-05-04 13:08 59.92706 23.30098 29090 ft 401 kts 241°
2026-05-04 13:08 59.91386 23.25173 29586 ft 404 kts 241°
2026-05-04 13:08 59.90053 23.20209 30023 ft 407 kts 241°
2026-05-04 13:08 59.88709 23.15214 30371 ft 411 kts 241°
2026-05-04 13:09 59.87350 23.10176 30716 ft 415 kts 241°
2026-05-04 13:09 59.85974 23.05086 31038 ft 419 kts 241°
2026-05-04 13:09 59.84588 22.99972 31348 ft 422 kts 241°
2026-05-04 13:09 59.83187 22.94816 31682 ft 425 kts 241°
2026-05-04 13:10 59.81776 22.89631 31981 ft 428 kts 241°
2026-05-04 13:10 59.80349 22.84400 32296 ft 430 kts 241°
2026-05-04 13:10 59.78922 22.79180 32735 ft 430 kts 241°
2026-05-04 13:10 59.77516 22.74044 33187 ft 429 kts 241°
2026-05-04 13:11 59.76090 22.68835 33608 ft 429 kts 241°
2026-05-04 13:11 59.74663 22.63651 33963 ft 429 kts 241°
2026-05-04 13:11 59.73228 22.58453 34256 ft 430 kts 241°
2026-05-04 13:11 59.71784 22.53241 34553 ft 431 kts 241°
2026-05-04 13:12 59.70831 22.49804 34752 ft 431 kts 241°
2026-05-04 13:12 59.69383 22.44592 35066 ft 432 kts 241°
2026-05-04 13:12 59.67931 22.39376 35371 ft 433 kts 241°
2026-05-04 13:12 59.66473 22.34149 35668 ft 434 kts 241°
2026-05-04 13:13 59.65011 22.28919 35950 ft 435 kts 241°
2026-05-04 13:13 59.63545 22.23685 36223 ft 436 kts 241°
2026-05-04 13:13 59.62069 22.18432 36487 ft 437 kts 241°
2026-05-04 13:13 59.60592 22.13183 36747 ft 438 kts 241°
2026-05-04 13:14 59.59110 22.07927 36995 ft 438 kts 241°
2026-05-04 13:14 59.57624 22.02675 37261 ft 439 kts 241°
2026-05-04 13:14 59.56131 21.97406 37515 ft 440 kts 241°
2026-05-04 13:14 59.54633 21.92132 37770 ft 440 kts 241°
2026-05-04 13:15 59.53133 21.86865 38010 ft 441 kts 241°
2026-05-04 13:15 59.51630 21.81598 38248 ft 441 kts 241°
2026-05-04 13:15 59.50122 21.76324 38457 ft 442 kts 241°
2026-05-04 13:15 59.48629 21.71119 38624 ft 443 kts 241°
2026-05-04 13:16 59.47096 21.65780 38813 ft 443 kts 240°
2026-05-04 13:16 59.45595 21.60572 38980 ft 444 kts 241°
2026-05-04 13:16 59.44052 21.55225 39150 ft 444 kts 240°
2026-05-04 13:16 59.42528 21.49936 39318 ft 445 kts 240°
2026-05-04 13:17 59.41015 21.44709 39480 ft 445 kts 240°
2026-05-04 13:17 59.39483 21.39434 39644 ft 446 kts 240°
2026-05-04 13:17 59.37940 21.34135 39703 ft 447 kts 240°
2026-05-04 13:18 59.34851 21.23560 39715 ft 446 kts 240°
2026-05-04 13:18 59.31757 21.13013 39713 ft 447 kts 240°
2026-05-04 13:19 59.28652 21.02474 39710 ft 447 kts 240°
2026-05-04 13:19 59.25540 20.91958 39719 ft 447 kts 240°
2026-05-04 13:20 59.22422 20.81469 39719 ft 446 kts 240°
2026-05-04 13:20 59.19315 20.71064 39719 ft 446 kts 240°
2026-05-04 13:21 59.16156 20.60625 39720 ft 446 kts 239°
2026-05-04 13:21 59.12904 20.50326 39722 ft 446 kts 239°
2026-05-04 13:22 59.09631 20.40049 39719 ft 446 kts 239°
2026-05-04 13:22 59.06367 20.29779 39723 ft 446 kts 239°
2026-05-04 13:23 59.03105 20.19527 39727 ft 446 kts 239°
2026-05-04 13:23 58.99839 20.09300 39723 ft 446 kts 239°
2026-05-04 13:24 58.96564 19.99093 39727 ft 446 kts 239°
2026-05-04 13:24 58.93275 19.88886 39724 ft 446 kts 239°
2026-05-04 13:25 58.88348 19.73682 39725 ft 446 kts 238°
2026-05-04 13:25 58.85034 19.63508 39727 ft 446 kts 238°
2026-05-04 13:26 58.81715 19.53366 39729 ft 446 kts 238°
2026-05-04 13:26 58.78391 19.43250 39729 ft 446 kts 238°